Regional Weather Roundup
Issued by NWS Sterling, VA

Home | Current Version | Previous Version | Graphics & Text | Print | Product List | Glossary On
Versions: 1 2 3 4 5 6 7 8 9 10 11 12 13 14 15 16 17 18 19 20 21 22 23 24 25 26 27 28
000
ASUS41 KLWX 231910
RWRLWX

REGIONAL WEATHER ROUNDUP
NATIONAL WEATHER SERVICE BALTIMORE MD/WASHINGTON DC
300 PM EDT WED APR 23 2014

Note: "FAIR" indicates few or no clouds below 12,000 feet
with no significant weather and/or obstructions to visibility.
 TC=TEMPERATURE CELSIUS

 * =Non NWS site. Station does not report precipitation (e.g. rain,
    snow, etc.), thunder, or fog.

DCZ001-MDZ009-015-VAZ040>042-051-053>054-232000-
WASHINGTON METRO

CITY           SKY/WX    TMP DP  RH WIND       PRES   REMARKS
WASHINGTON NAT MOSUNNY   60  36  40 NW21G35   29.84R
DULLES         PTSUNNY   55  33  43 NW22G31   29.86R
ANDREWS AFB    MOSUNNY   58  35  41 NW28G33   29.82R
FT BELVOIR     MOSUNNY   59  35  39 NW21G29   29.85R
QUANTICO       MOSUNNY   62  33  33 NW24G33   29.85R
COLLEGE PARK*  MOSUNNY   59  36  41 NW15G29   29.82S
LEESBURG*      MOSUNNY   55  39  54 NW17G35   29.87R
MANASSAS*      PTSUNNY   57  36  44 NW22G30   29.86R
GAITHERSBURG*  MOSUNNY   54  34  47 N13G30    29.86R

$$

MDZ006>007-011-014-232000-
BALTIMORE METRO

CITY           SKY/WX    TMP DP  RH WIND       PRES   REMARKS
BWI AIRPORT    MOSUNNY   58  35  42 NW21G35   29.80R
MD SCIENCE CTR   N/A     58  34  40 MISG      29.80S
MARTIN STATE   MOSUNNY   61  39  44 W23G29    29.80R
ANNAPOLIS      MOSUNNY   56  37  49 NW18      29.79S
FORT MEADE*    MOSUNNY   59  34  38 NW14G28   29.84R

$$

MDZ012-015-019>023-232000-
MARYLAND EASTERN SHORE

CITY           SKY/WX    TMP DP  RH WIND       PRES   REMARKS
OCEAN CITY     MOSUNNY   60  35  39 NW16G35   29.72S
SALISBURY      MOSUNNY   61  35  37 NW21G30   29.75R
BAY BRIDGE AP* SUNNY     57  36  44 NW20      29.79S
CAMBRIDGE*     SUNNY     59  34  38 NW21G30   29.78S
EASTON*        MOSUNNY   59  39  47 NW14G29   29.82R

$$

MDZ017>025-232000-
SOUTHERN MARYLAND

CITY           SKY/WX    TMP DP  RH WIND       PRES   REMARKS
PATUXENT RIVER MOSUNNY   62  34  35 NW21G29   29.79S
ST INIGOES     MOSUNNY   61  35  37 MISG      29.79R
LEONARDTOWN*   MOSUNNY   59  32  36 NW15G25   29.81R

$$

MDZ003>005-232000-
NORTH CENTRAL MARYLAND

CITY           SKY/WX    TMP DP  RH WIND       PRES   REMARKS
FREDERICK*     SUNNY     55  39  54 NW20G28   29.88R
HAGERSTOWN APT MOSUNNY   50  34  54 NW25      29.88R
WESTMINSTER*   MOSUNNY   55  36  47 NW23G31   29.82S

$$

MDZ501>502-232000-
WESTERN MARYLAND

CITY           SKY/WX    TMP DP  RH WIND       PRES   REMARKS
OAKLAND*       CLOUDY    36  30  80 W14G20    29.92S WCI  27
CUMBERLAND*    PTSUNNY   52  32  46 NW8G22    29.98S

$$

VAZ025>031-232000-
SHENANDOAH VALLEY

CITY           SKY/WX    TMP DP  RH WIND       PRES   REMARKS
WINCHESTER*    PTSUNNY   55  34  44 NW21G31   29.89R
STAUNTON*      SUNNY     59  29  31 N15       29.89S

$$

WVZ021-048>050-054>055-232000-
EASTERN WEST VIRGINIA PANHANDLE

CITY           SKY/WX    TMP DP  RH WIND       PRES   REMARKS
MARTINSBURG    SUNNY     55  31  39 NW21G29   29.89S
PETERSBURG*    MOSUNNY   58  38  46 NW14G24   29.94S

$$

VAZ036>039-050-232000-
CENTRAL FOOTHILLS

CITY           SKY/WX    TMP DP  RH WIND       PRES   REMARKS
CHARLOTTESVILL MOSUNNY   63  31  30 N14G25    29.85S
CULPEPER*      MOSUNNY   64  28  25 N15       29.86R

$$

VAZ055>057-232000-
NORTH AND CENTRAL PIEDMONT

CITY           SKY/WX    TMP DP  RH WIND       PRES   REMARKS
FREDERICKSBRG* MOSUNNY   63  33  32 N18G31    29.83F
STAFFORD*      MOSUNNY   62  37  40 NW23G31   29.89R

$$

NCZ024-NYZ072-PAZ021-071-VAZ022-071-232000-
OTHER REGIONAL OBSERVATIONS

CITY           SKY/WX    TMP DP  RH WIND       PRES   REMARKS
NEW YORK CITY  CLOUDY    57  33  40 MISG      29.63R
PHILADELPHIA   MOSUNNY   61  32  33 NW30G37   29.71S
PITTSBURGH     CLOUDY    45  32  60 NW15      30.01S
ROANOKE        SUNNY     65  28  24 W14G31    29.89S
RICHMOND       MOSUNNY   68  31  25 N14G24    29.82R
RALEIGH        SUNNY     68  27  21 NW12G22   29.85S

$$

ANZ530>537-232000-
MARINE OBSERVATIONS

STATION/POSITION TIME  TEMP    WIND        PRES
                       AIR SEA DIR/SP/G
                 (UTC) (F)     (DEG/KT/KT) (MB)
THOMAS PT LIGHT  1900   56 54  320/ 18/ 21 1009.3R
BALT KEY BRIDGE  1900   55     300/ 22/ 27 1009.1R
COVE POINT       1900   55     350/ 24/ 27 1008.5R
LEWISETTA        1900   58 59  320/ 18/ 22 1009.3R
SOLOMONS ISLAND  1900      56                N/A
PINEY POINT      1900          310/ 22/ 25   N/A

$$




USA.gov is the U.S. government's official web portal to all federal, state and local government web resources and services.